Chester, CT

9:19 AM EDT on September 22, 2017 (GMT -0400)
Chester

Weather History for KSNC - July, 2013

Change the Weather History Date:

Thursday, July 25, 2013

  Actual Average (KHVN) Record (KHVN)
Temperature  
Mean Temperature 62 °F -  
Max Temperature 68 °F 78 °F 100 °F (1987)
Min Temperature 55 °F 63 °F 55 °F (2002)
Degree Days  
Heating Degree Days 4    
Growing Degree Days 12 (Base 50)    
Moisture  
Dew Point 56 °F    
Average Humidity 85    
Maximum Humidity 100    
Minimum Humidity 59    
Precipitation  
Precipitation 1.51 in - - ()
Sea Level Pressure  
Sea Level Pressure 30.03 in    
Wind  
Wind Speed 9 mph (NNE)    
Max Wind Speed 14 mph    
Max Gust Speed 21 mph    
Visibility 9 miles    
Events Rain    
Averages and records for this station are not official NWS values.
T = Trace of Precipitation, MM = Missing Value Source: NWS Daily Summary

Daily Weather History Graph

Daily Weather History Graph

Search for Another Location

Airport or City:

Trip Planner

Search our weather history database for the weather conditions in past years. The results will help you decide how hot, cold, wet, or windy it might be!

Date:

Astronomy

Jul. 25, 2013 Rise Set
Actual Time 5:38 AM EDT 8:14 PM EDT
Civil Twilight 5:06 AM EDT 8:45 PM EDT
Nautical Twilight 4:26 AM EDT 9:25 PM EDT
Astronomical Twilight 3:41 AM EDT 10:09 PM EDT
Moon 9:49 PM EDT (7/25) 9:07 AM EDT (7/25)
Length of Visible Light 15h 39m
Length of Day
14h 35m
Waning Gibbous, 88% of the Moon is Illuminated
Jul 25
Waning Gibbous
Jul 29
Last Quarter
Aug 6
New
Aug 14
First Quarter
Aug 20
Full

Hourly Weather History & Observations

Time (EDT) Temp. Dew Point Humidity Pressure Visibility Wind Dir Wind Speed Gust Speed Precip Events Conditions
12:15 AM 68.0 °F 55.4 °F 64% 29.94 in 10.0 mi North 9.2 mph 16.1 mph N/A   Overcast
12:35 AM 66.2 °F 55.4 °F 68% 29.94 in 10.0 mi North 5.8 mph - N/A   Mostly Cloudy
12:55 AM 66.2 °F 55.4 °F 68% 29.95 in 10.0 mi North 8.1 mph - N/A   Overcast
1:15 AM 66.2 °F 57.2 °F 73% 29.95 in 10.0 mi North 10.4 mph - N/A   Overcast
1:35 AM 66.2 °F 57.2 °F 73% 29.94 in 10.0 mi North 8.1 mph - N/A   Mostly Cloudy
1:55 AM 66.2 °F 57.2 °F 73% 29.95 in 10.0 mi North 9.2 mph - N/A   Overcast
2:15 AM 66.2 °F 57.2 °F 73% 29.95 in 10.0 mi North 9.2 mph - N/A   Overcast
2:35 AM 66.2 °F 55.4 °F 68% 29.95 in 10.0 mi NNE 8.1 mph - N/A   Overcast
2:55 AM 64.4 °F 55.4 °F 73% 29.96 in 10.0 mi North 9.2 mph - N/A   Overcast
3:15 AM 64.4 °F 53.6 °F 68% 29.96 in 10.0 mi North 10.4 mph - N/A   Overcast
3:35 AM 62.6 °F 53.6 °F 72% 29.95 in 10.0 mi NNE 11.5 mph 18.4 mph N/A   Mostly Cloudy
3:55 AM 62.6 °F 51.8 °F 68% 29.96 in 10.0 mi North 10.4 mph - N/A   Mostly Cloudy
4:15 AM 62.6 °F 50.0 °F 63% 29.97 in 10.0 mi NNE 10.4 mph 20.7 mph N/A   Overcast
4:35 AM 62.6 °F 48.2 °F 59% 29.97 in 10.0 mi North 13.8 mph 17.3 mph N/A   Overcast
4:55 AM 60.8 °F 48.2 °F 63% 29.98 in 10.0 mi North 9.2 mph - N/A   Overcast
5:15 AM 60.8 °F 48.2 °F 63% 29.99 in 10.0 mi North 10.4 mph - N/A   Overcast
5:35 AM 60.8 °F 48.2 °F 63% 29.99 in 10.0 mi North 10.4 mph - N/A   Overcast
5:55 AM 60.8 °F 48.2 °F 63% 29.99 in 10.0 mi North 10.4 mph - N/A   Overcast
6:15 AM 60.8 °F 48.2 °F 63% 29.99 in 10.0 mi North 11.5 mph - N/A   Overcast
6:35 AM 60.8 °F 48.2 °F 63% 30.00 in 10.0 mi North 9.2 mph 18.4 mph N/A   Overcast
6:55 AM 60.8 °F 48.2 °F 63% 30.01 in 10.0 mi NNE 8.1 mph - N/A   Overcast
7:15 AM 60.8 °F 48.2 °F 63% 30.01 in 10.0 mi NNE 10.4 mph - N/A   Overcast
7:35 AM 60.8 °F 48.2 °F 63% 30.01 in 10.0 mi NNE 9.2 mph 16.1 mph N/A   Overcast
7:55 AM 60.8 °F 50.0 °F 68% 30.02 in 10.0 mi NNE 8.1 mph - N/A   Overcast
8:15 AM 59.0 °F 50.0 °F 72% 30.03 in 10.0 mi NNE 9.2 mph - N/A   Overcast
8:35 AM 59.0 °F 51.8 °F 77% 30.04 in 10.0 mi North 5.8 mph - N/A   Overcast
8:55 AM 59.0 °F 51.8 °F 77% 30.05 in 10.0 mi NNE 9.2 mph - N/A   Overcast
9:15 AM 59.0 °F 51.8 °F 77% 30.04 in 10.0 mi NNE 9.2 mph - N/A   Overcast
9:35 AM 57.2 °F 53.6 °F 88% 30.05 in 10.0 mi NNE 6.9 mph - N/A Rain Light Rain
9:55 AM 57.2 °F 53.6 °F 88% 30.06 in 4.0 mi NNE 10.4 mph - 0.03 in Rain Heavy Rain
10:15 AM 55.4 °F 55.4 °F 100% 30.07 in 1.8 mi NNE 9.2 mph - 0.22 in Rain Heavy Rain
10:35 AM 55.4 °F 55.4 °F 100% 30.06 in 1.0 mi NNE 9.2 mph - 1.08 in Rain Heavy Rain
10:55 AM 55.4 °F 55.4 °F 100% 30.07 in 7.0 mi North 9.2 mph - 1.18 in   Light Drizzle
11:15 AM 57.2 °F 57.2 °F 100% 30.07 in 10.0 mi NNE 8.1 mph 16.1 mph N/A   Overcast
11:35 AM 57.2 °F 55.4 °F 94% 30.07 in 10.0 mi NNE 5.8 mph - N/A   Overcast
11:55 AM 57.2 °F 57.2 °F 100% 30.07 in 9.0 mi NNE 8.1 mph - N/A   Light Drizzle
12:15 PM 57.2 °F 57.2 °F 100% 30.08 in 7.0 mi NNE 8.1 mph - N/A Rain Light Rain
12:35 PM 57.2 °F 57.2 °F 100% 30.08 in 6.0 mi North 8.1 mph - N/A   Light Drizzle
12:55 PM 59.0 °F 57.2 °F 94% 30.08 in 10.0 mi NNE 6.9 mph - N/A   Overcast
1:15 PM 59.0 °F 57.2 °F 94% 30.07 in 9.0 mi NNE 8.1 mph - N/A   Overcast
1:35 PM 60.8 °F 59.0 °F 94% 30.07 in 10.0 mi NNE 8.1 mph - N/A   Overcast
1:55 PM 59.0 °F 57.2 °F 94% 30.07 in 10.0 mi NNE 8.1 mph - N/A   Overcast
2:15 PM 59.0 °F 57.2 °F 94% 30.07 in 10.0 mi NNE 8.1 mph - N/A   Overcast
2:35 PM 60.8 °F 57.2 °F 88% 30.06 in 10.0 mi NNE 8.1 mph - N/A   Overcast
2:55 PM 60.8 °F 59.0 °F 94% 30.07 in 3.0 mi NNE 8.1 mph - N/A   Overcast
3:15 PM 60.8 °F 59.0 °F 94% 30.06 in 10.0 mi NNE 9.2 mph - N/A   Overcast
3:35 PM 60.8 °F 59.0 °F 94% 30.07 in 10.0 mi NNE 10.4 mph - N/A   Overcast
3:55 PM 60.8 °F 59.0 °F 94% 30.07 in 10.0 mi North 6.9 mph - N/A   Overcast
4:15 PM 60.8 °F 59.0 °F 94% 30.06 in 10.0 mi North 9.2 mph - N/A Rain Light Rain
4:35 PM 60.8 °F 59.0 °F 94% 30.06 in 8.0 mi NNE 5.8 mph - 0.01 in Rain Light Rain
4:55 PM 60.8 °F 59.0 °F 94% 30.07 in 10.0 mi NNE 6.9 mph - 0.01 in   Overcast
5:15 PM 60.8 °F 59.0 °F 94% 30.07 in 10.0 mi NNE 6.9 mph - N/A   Light Drizzle
5:35 PM 60.8 °F 59.0 °F 94% 30.07 in 7.0 mi NNE 6.9 mph - N/A Rain Light Rain
5:55 PM 60.8 °F 59.0 °F 94% 30.06 in 5.0 mi NNE 8.1 mph - 0.02 in Rain Light Rain
6:15 PM 60.8 °F 59.0 °F 94% 30.06 in 4.0 mi NNE 6.9 mph - 0.02 in Rain Light Rain
6:35 PM 60.8 °F 59.0 °F 94% 30.06 in 4.0 mi NNE 8.1 mph - 0.05 in Rain Rain
6:55 PM 59.0 °F 59.0 °F 100% 30.07 in 3.0 mi NE 4.6 mph - 0.19 in Rain Rain
7:15 PM 59.0 °F 59.0 °F 100% 30.07 in 5.0 mi NNE 6.9 mph - 0.01 in Rain Light Rain
7:35 PM 60.8 °F 59.0 °F 94% 30.06 in 6.0 mi NE 6.9 mph - 0.03 in Rain Light Rain
7:55 PM 60.8 °F 60.8 °F 100% 30.06 in 5.0 mi NNE 8.1 mph - 0.04 in Rain Light Rain
8:15 PM 60.8 °F 60.8 °F 100% 30.06 in 9.0 mi NNE 5.8 mph - N/A Rain Light Rain
8:35 PM 60.8 °F 59.0 °F 94% 30.07 in 9.0 mi NNE 6.9 mph - N/A Rain Light Rain
8:55 PM 59.0 °F 59.0 °F 100% 30.06 in 9.0 mi North 9.2 mph - 0.01 in Rain Light Rain
9:15 PM 59.0 °F 59.0 °F 100% 30.06 in 8.0 mi NNE 6.9 mph - N/A Rain Light Rain
9:35 PM 59.0 °F 59.0 °F 100% 30.06 in 10.0 mi NNE 6.9 mph - N/A   Light Drizzle
9:55 PM 59.0 °F 59.0 °F 100% 30.06 in 10.0 mi NNE 6.9 mph - 0.01 in   Light Drizzle
10:15 PM 59.0 °F 59.0 °F 100% 30.06 in 10.0 mi NNE 8.1 mph - N/A Rain Light Rain
10:35 PM 59.0 °F 59.0 °F 100% 30.05 in 9.0 mi NNE 8.1 mph - 0.01 in Rain Light Rain
10:55 PM 59.0 °F 59.0 °F 100% 30.05 in 10.0 mi NNE 8.1 mph - 0.01 in   Partly Cloudy
11:15 PM 59.0 °F 59.0 °F 100% 30.05 in 10.0 mi NNE 8.1 mph - N/A   Mostly Cloudy
11:35 PM 59.0 °F 59.0 °F 100% 30.05 in 9.0 mi NNE 5.8 mph - N/A Rain Light Rain
11:55 PM 60.8 °F 59.0 °F 94% 30.04 in 10.0 mi NNE 5.8 mph - 0.01 in   Light Drizzle